Bar Harbor, ME

4:26 PM EDT on October 16, 2019 (GMT -0400)
Hancock County-Bar Harbor

Weather History for KBHB - August, 2019

Change the Weather History Date:

Monday, August 26, 2019

  Actual Average Record
Temperature  
Mean Temperature 60 °F -  
Max Temperature 71 °F 74 °F 90 °F (1948)
Min Temperature 48 °F 54 °F 44 °F (2006)
Degree Days  
Heating Degree Days 6    
Growing Degree Days 10 (Base 50)    
Moisture  
Dew Point 52 °F    
Average Humidity 79    
Maximum Humidity 100    
Minimum Humidity 44    
Precipitation  
Precipitation 0.00 in - - ()
Sea Level Pressure  
Sea Level Pressure 30.24 in    
Wind  
Wind Speed 3 mph (NNE)    
Max Wind Speed 12 mph    
Max Gust Speed -    
Visibility 10 miles    
Events      
Averages and records for this station are not official NWS values.
T = Trace of Precipitation, MM = Missing Value Source: NWS Daily Summary

Daily Weather History Graph

Daily Weather History Graph

Search for Another Location

Airport or City:

Astronomy

Aug. 26, 2019 Rise Set
Actual Time 5:48 AM EDT 7:20 PM EDT
Civil Twilight 5:18 AM EDT 7:51 PM EDT
Nautical Twilight 4:41 AM EDT 8:28 PM EDT
Astronomical Twilight 4:01 AM EDT 9:07 PM EDT
Moon 1:02 AM EDT (8/26) 4:49 PM EDT (8/26)
Length of Visible Light 14h 32m
Length of Day
13h 32m
Waning Crescent, 19% of the Moon is Illuminated
Aug 26
Waning Crescent
Aug 30
New
Sep 5
First Quarter
Sep 14
Full
Sep 21
Last Quarter

Hourly Weather History & Observations

Time (EDT) Temp. Dew Point Humidity Pressure Visibility Wind Dir Wind Speed Gust Speed Precip Events Conditions
12:56 AM 48.9 °F 48.9 °F 100% 30.32 in 10.0 mi NW 3.5 mph - N/A   Clear
1:56 AM 48.9 °F 48.0 °F 97% 30.31 in 10.0 mi NNW 3.5 mph - N/A   Clear
2:56 AM 50.0 °F 48.9 °F 96% 30.31 in 10.0 mi Calm Calm - N/A   Clear
3:56 AM 51.1 °F 50.0 °F 96% 30.29 in 10.0 mi North 4.6 mph - N/A   Clear
4:56 AM 50.0 °F 48.9 °F 96% 30.29 in 10.0 mi North 3.5 mph - N/A   Clear
5:56 AM 50.0 °F 48.9 °F 96% 30.30 in 10.0 mi Calm Calm - N/A   Clear
6:56 AM 51.1 °F 50.0 °F 96% 30.30 in 10.0 mi Calm Calm - N/A   Clear
7:56 AM 55.0 °F 53.1 °F 93% 30.31 in 10.0 mi Calm Calm - N/A   Clear
8:56 AM 57.9 °F 54.0 °F 87% 30.30 in 10.0 mi NE 3.5 mph - N/A   Clear
9:56 AM 64.0 °F 53.1 °F 67% 30.28 in 10.0 mi NE 4.6 mph - N/A   Clear
10:56 AM 66.9 °F 55.0 °F 66% 30.27 in 10.0 mi NNE 6.9 mph - N/A   Clear
11:56 AM 68.0 °F 52.0 °F 56% 30.25 in 10.0 mi NNE 11.5 mph - N/A   Clear
12:56 PM 68.0 °F 51.1 °F 55% 30.25 in 10.0 mi NE 8.1 mph - N/A   Clear
1:56 PM 69.1 °F 53.1 °F 57% 30.22 in 10.0 mi East 4.6 mph - N/A   Clear
2:56 PM 71.1 °F 48.0 °F 44% 30.20 in 10.0 mi NNE 10.4 mph - N/A   Clear
3:56 PM 70.0 °F 50.0 °F 49% 30.20 in 10.0 mi North 8.1 mph - N/A   Clear
4:56 PM 68.0 °F 51.1 °F 55% 30.19 in 10.0 mi ESE 5.8 mph - N/A   Clear
5:56 PM 64.9 °F 54.0 °F 68% 30.18 in 10.0 mi East 3.5 mph - N/A   Clear
6:56 PM 62.1 °F 53.1 °F 72% 30.18 in 10.0 mi Calm Calm - N/A   Clear
7:56 PM 57.0 °F 53.1 °F 87% 30.17 in 10.0 mi Calm Calm - N/A   Clear
8:56 PM 57.0 °F 54.0 °F 89% 30.19 in 10.0 mi West 5.8 mph - N/A   Clear
9:56 PM 55.0 °F 53.1 °F 93% 30.18 in 10.0 mi Calm Calm - N/A   Clear
10:56 PM 54.0 °F 53.1 °F 97% 30.17 in 10.0 mi Calm Calm - N/A   Clear
11:56 PM 53.1 °F 52.0 °F 96% 30.15 in 10.0 mi Calm Calm - N/A   Clear